Location: Cambridge
(43.3830°N, 80.3170°W)
Time: 06:27:15
(UTC-04:00)

Envisat - Pass Details

Date: 28 March 2019
Orbit: 764 x 766 km, 98.2° (Epoch: 23 April)

Event Time Altitude Azimuth Distance (km) Brightness Sun altitude
Rises 20:55:06 0° 199° (SSW) 3,219 6.3 -13.6°
Reaches altitude 10° 20:57:49 10° 213° (SSW) 2,298 5.7 -14.1°
Maximum altitude 21:01:52 24° 267° (W) 1,553 5.4 -14.8°
Drops below altitude 10° 21:05:56 10° 320° (NW) 2,311 6.4 -15.5°
Sets 21:08:42 0° 334° (NNW) 3,242 7.0 -16.0°
